Morris, MN

6:17 PM CST on January 18, 2018 (GMT -0600)
Morris Municipal

Weather History for KMOX - January, 2014

Change the Weather History Date:

Saturday, January 18, 2014

  Actual Average Record
Temperature  
Mean Temperature 18 °F -  
Max Temperature 24 °F 16 °F 39 °F (2015)
Min Temperature 12 °F 1 °F -14 °F (1997)
Degree Days  
Heating Degree Days 47    
Moisture  
Dew Point 13 °F    
Average Humidity 84    
Maximum Humidity 93    
Minimum Humidity 73    
Precipitation  
Precipitation 0.01 in - - ()
Sea Level Pressure  
Sea Level Pressure 29.72 in    
Wind  
Wind Speed 14 mph (WNW)    
Max Wind Speed 25 mph    
Max Gust Speed 25 mph    
Visibility 8 miles    
Events Snow    
Averages and records for this station are not official NWS values.
T = Trace of Precipitation, MM = Missing Value Source: NWS Daily Summary

Daily Weather History Graph

Daily Weather History Graph

Search for Another Location

Airport or City:

Trip Planner

Search our weather history database for the weather conditions in past years. The results will help you decide how hot, cold, wet, or windy it might be!

Date:

Astronomy

Jan. 18, 2014 Rise Set
Actual Time 7:58 AM CST 5:10 PM CST
Civil Twilight 7:25 AM CST 5:43 PM CST
Nautical Twilight 6:48 AM CST 6:20 PM CST
Astronomical Twilight 6:13 AM CST 6:55 PM CST
Moon 8:04 PM CST (1/18) 8:49 AM CST (1/18)
Length of Visible Light 10h 18m
Length of Day
9h 12m
Waning Gibbous, 94% of the Moon is Illuminated
Jan 18
Waning Gibbous
Jan 23
Last Quarter
Jan 30
New
Feb 6
First Quarter
Feb 14
Full

Hourly Weather History & Observations

Time (CST) Temp. Windchill Dew Point Humidity Pressure Visibility Wind Dir Wind Speed Gust Speed Precip Events Conditions
12:00 AM 17.6 °F 0.1 °F 14.0 °F 86% 29.51 in 3.0 mi SSE 23.0 mph - N/A Snow Light Snow
12:20 AM 17.6 °F -0.6 °F 14.0 °F 86% 29.49 in 1.5 mi SSE 25.3 mph - N/A Snow Light Snow
12:40 AM 17.6 °F 3.7 °F 15.8 °F 93% 29.49 in 1.0 mi SSE 13.8 mph - N/A Snow Light Snow
1:00 AM 17.6 °F 3.2 °F 15.8 °F 93% 29.47 in 1.8 mi SSE 15.0 mph 19.6 mph N/A Snow Light Snow
1:20 AM 17.6 °F 3.7 °F 15.8 °F 93% 29.45 in 2.5 mi SSE 13.8 mph - N/A Snow Light Snow
1:40 AM 19.4 °F 6.0 °F 17.6 °F 93% 29.43 in 1.5 mi SSE 13.8 mph - N/A Snow Light Snow
2:00 AM 19.4 °F 7.9 °F 17.6 °F 93% 29.43 in 1.0 mi SSE 10.4 mph - N/A Snow Light Snow
2:20 AM 19.4 °F 10.4 °F 17.6 °F 93% 29.42 in 1.2 mi SE 6.9 mph - N/A Snow Light Snow
2:40 AM 21.2 °F 11.7 °F 17.6 °F 86% 29.41 in 2.5 mi SSE 8.1 mph - N/A Snow Light Snow
3:00 AM 21.2 °F 13.6 °F 19.4 °F 93% 29.41 in 0.8 mi SE 5.8 mph - 0.01 in Snow Light Snow
3:20 AM 21.2 °F 14.9 °F 19.4 °F 93% 29.40 in 1.5 mi SE 4.6 mph - 0.01 in Snow Light Snow
3:40 AM 21.2 °F 13.6 °F 19.4 °F 93% 29.39 in 2.0 mi SE 5.8 mph - 0.01 in Snow Light Snow
4:00 AM 21.2 °F 13.6 °F 19.4 °F 93% 29.39 in 1.2 mi ESE 5.8 mph - N/A Snow Light Snow
4:20 AM 21.2 °F 12.6 °F 19.4 °F 93% 29.40 in 4.0 mi East 6.9 mph - N/A Snow Light Snow
4:40 AM 21.2 °F 13.6 °F 19.4 °F 93% 29.40 in 7.0 mi East 5.8 mph - N/A   Clear
5:00 AM 21.2 °F 13.6 °F 19.4 °F 93% 29.41 in 7.0 mi East 5.8 mph - N/A   Clear
5:20 AM 21.2 °F 13.6 °F 19.4 °F 93% 29.42 in 4.0 mi ENE 5.8 mph - N/A Snow Light Snow
5:40 AM 21.2 °F 8.9 °F 17.6 °F 86% 29.44 in 5.0 mi ENE 12.7 mph - N/A Snow Light Snow
6:00 AM 19.4 °F 5.0 °F 17.6 °F 93% 29.47 in 10.0 mi ENE 16.1 mph - N/A   Clear
6:20 AM 17.6 °F 2.7 °F 14.0 °F 86% 29.50 in 10.0 mi ENE 16.1 mph - N/A   Clear
6:40 AM 15.8 °F -0.2 °F 12.2 °F 86% 29.53 in 7.0 mi NE 17.3 mph 25.3 mph N/A   Clear
7:00 AM 15.8 °F -1.1 °F 10.4 °F 79% 29.57 in 5.0 mi NE 19.6 mph - N/A   Clear
7:20 AM 15.8 °F -1.1 °F 10.4 °F 79% 29.61 in 7.0 mi NE 19.6 mph - N/A   Clear
7:40 AM 15.8 °F -1.5 °F 10.4 °F 79% 29.64 in 10.0 mi NNE 20.7 mph 24.2 mph N/A   Clear
8:00 AM 14.0 °F -3.0 °F 10.4 °F 86% 29.68 in 10.0 mi NNE 18.4 mph - N/A   Clear
8:20 AM 14.0 °F -1.4 °F 8.6 °F 79% 29.70 in 10.0 mi North 15.0 mph - N/A   Clear
8:40 AM 12.2 °F -3.7 °F 8.6 °F 85% 29.73 in 10.0 mi North 15.0 mph - N/A   Clear
9:00 AM 12.2 °F -2.5 °F 8.6 °F 85% 29.75 in 10.0 mi North 12.7 mph - N/A   Clear
9:20 AM 12.2 °F -2.5 °F 6.8 °F 79% 29.79 in 10.0 mi North 12.7 mph - N/A   Clear
9:40 AM 12.2 °F -2.5 °F 6.8 °F 79% 29.82 in 10.0 mi North 12.7 mph - N/A   Clear
10:00 AM 12.2 °F -4.8 °F 6.8 °F 79% 29.85 in 7.0 mi NNW 17.3 mph - N/A   Clear
10:20 AM 12.2 °F -3.1 °F 6.8 °F 79% 29.87 in 7.0 mi North 13.8 mph - N/A   Clear
10:40 AM 12.2 °F -4.8 °F 6.8 °F 79% 29.88 in 7.0 mi NNW 17.3 mph - N/A   Clear
11:00 AM 14.0 °F -3.0 °F 8.6 °F 79% 29.90 in 7.0 mi NNW 18.4 mph - N/A   Clear
11:20 AM 14.0 °F -2.0 °F 8.6 °F 79% 29.91 in 10.0 mi NNW 16.1 mph - N/A   Clear
11:40 AM 15.8 °F 3.4 °F 8.6 °F 73% 29.91 in 10.0 mi North 10.4 mph - N/A   Clear
12:00 PM 15.8 °F 0.9 °F 8.6 °F 73% 29.92 in 10.0 mi NNW 15.0 mph - N/A   Clear
12:20 PM 15.8 °F 2.1 °F 8.6 °F 73% 29.92 in 10.0 mi NNW 12.7 mph - N/A   Clear
12:40 PM 15.8 °F 3.4 °F 8.6 °F 73% 29.91 in 10.0 mi NNW 10.4 mph - N/A   Clear
1:00 PM 15.8 °F 2.1 °F 8.6 °F 73% 29.91 in 10.0 mi NW 12.7 mph - N/A   Clear
1:20 PM 15.8 °F -0.2 °F 8.6 °F 73% 29.93 in 10.0 mi NW 17.3 mph - N/A   Clear
1:40 PM 15.8 °F 0.3 °F 8.6 °F 73% 29.94 in 7.0 mi NW 16.1 mph 21.9 mph N/A   Clear
2:00 PM 15.8 °F -0.6 °F 8.6 °F 73% 29.94 in 10.0 mi NW 18.4 mph - N/A   Clear
2:20 PM 15.8 °F 0.3 °F 10.4 °F 79% 29.95 in 10.0 mi NW 16.1 mph 21.9 mph N/A   Scattered Clouds
2:40 PM 15.8 °F -0.2 °F 10.4 °F 79% 29.94 in 10.0 mi NW 17.3 mph - N/A   Clear
3:00 PM 15.8 °F 0.3 °F 10.4 °F 79% 29.95 in 10.0 mi NW 16.1 mph 21.9 mph N/A   Clear
3:20 PM 15.8 °F -1.1 °F 10.4 °F 79% 29.97 in 10.0 mi NW 19.6 mph - N/A   Clear
3:40 PM 15.8 °F 1.4 °F 10.4 °F 79% 29.97 in 10.0 mi NW 13.8 mph - N/A   Clear
4:00 PM 15.8 °F 2.7 °F 10.4 °F 79% 29.97 in 10.0 mi NW 11.5 mph - N/A   Clear
4:20 PM 15.8 °F 5.1 °F 10.4 °F 79% 29.97 in 10.0 mi WNW 8.1 mph - N/A   Clear
4:40 PM 14.0 °F 6.5 °F 10.4 °F 86% 29.95 in 10.0 mi WNW 4.6 mph - N/A   Clear
5:00 PM 12.2 °F 1.7 °F 10.4 °F 92% 29.94 in 10.0 mi WNW 6.9 mph - N/A   Clear
5:20 PM 15.8 °F 8.6 °F 10.4 °F 79% 29.95 in 10.0 mi WNW 4.6 mph - N/A   Clear
5:40 PM 15.8 °F 4.2 °F 12.2 °F 86% 29.94 in 10.0 mi WNW 9.2 mph - N/A   Clear
6:00 PM 15.8 °F 4.2 °F 12.2 °F 86% 29.93 in 10.0 mi WNW 9.2 mph - N/A   Clear
6:20 PM 17.6 °F 7.3 °F 12.2 °F 79% 29.92 in 10.0 mi West 8.1 mph - N/A   Clear
6:40 PM 17.6 °F 6.4 °F 12.2 °F 79% 29.90 in 10.0 mi WSW 9.2 mph - N/A   Clear
7:00 PM 17.6 °F 6.4 °F 12.2 °F 79% 29.89 in 10.0 mi SW 9.2 mph - N/A   Scattered Clouds
7:20 PM 17.6 °F 6.4 °F 14.0 °F 86% 29.88 in 10.0 mi SW 9.2 mph 17.3 mph N/A   Clear
7:40 PM 17.6 °F 6.4 °F 15.8 °F 93% 29.86 in 10.0 mi SW 9.2 mph - N/A   Clear
8:00 PM 19.4 °F 9.5 °F 15.8 °F 86% 29.84 in 10.0 mi SW 8.1 mph - N/A   Clear
8:20 PM 19.4 °F 6.6 °F 17.6 °F 93% 29.81 in 10.0 mi SW 12.7 mph - N/A   Clear
8:40 PM 21.2 °F 9.5 °F 17.6 °F 86% 29.78 in 10.0 mi SW 11.5 mph 17.3 mph N/A   Clear
9:00 PM 21.2 °F 8.3 °F 17.6 °F 86% 29.76 in 10.0 mi SW 13.8 mph - N/A   Clear
9:20 PM 21.2 °F 9.5 °F 17.6 °F 86% 29.73 in 10.0 mi SW 11.5 mph - N/A   Clear
9:40 PM 21.2 °F 9.5 °F 19.4 °F 93% 29.73 in 10.0 mi SW 11.5 mph - N/A   Clear
10:00 PM 21.2 °F 10.1 °F 17.6 °F 86% 29.72 in 10.0 mi SSW 10.4 mph - N/A   Clear
10:20 PM 21.2 °F 12.6 °F 17.6 °F 86% 29.72 in 10.0 mi South 6.9 mph - N/A   Clear
10:40 PM 21.2 °F 10.9 °F 19.4 °F 93% 29.71 in 10.0 mi SSW 9.2 mph - N/A   Clear
11:00 PM 21.2 °F 11.7 °F 19.4 °F 93% 29.69 in 10.0 mi SW 8.1 mph - N/A   Clear
11:20 PM 24.8 °F 16.1 °F 19.4 °F 80% 29.67 in 10.0 mi SW 8.1 mph - N/A   Clear
11:40 PM 24.8 °F 16.1 °F 19.4 °F 80% 29.65 in 10.0 mi SW 8.1 mph - N/A   Clear